Weather History for Fairfield, IL

Change the Weather History Date:

Saturday, July 13, 2013

  Actual Average (KMVN) Record (KMVN)
Temperature  
Mean Temperature 73 °F -  
Max Temperature 84 °F 85 °F 96 °F (1997)
Min Temperature 62 °F 64 °F 53 °F (2001)
Cooling Degree Days 8    
Growing Degree Days 23 (Base 50)    
Moisture  
Dew Point 63 °F    
Average Humidity 71    
Maximum Humidity 94    
Minimum Humidity 42    
Precipitation  
Precipitation 0.00 in - - ()
Sea Level Pressure  
Sea Level Pressure 30.06 in    
Wind  
Wind Speed 4 mph (NE)    
Max Wind Speed 14 mph    
Max Gust Speed 16 mph    
Visibility 10 miles    
Events Rain , Thunderstorm    
Averages and records for this station are not official NWS values.
T = Trace of Precipitation, MM = Missing Value Source: NWS Daily Summary

Daily Weather History Graph

Daily Weather History Graph

Search for Another Location

Airport:

Trip Planner

Search our weather history database for the weather conditions in past years. The results will help you decide how hot, cold, wet, or windy it might be!

Date:

Astronomy

Jul. 13, 2013 Rise Set
Actual Time 5:40 AM CDT 8:17 PM CDT
Civil Twilight 5:09 AM CDT 8:48 PM CDT
Nautical Twilight 4:31 AM CDT 9:26 PM CDT
Astronomical Twilight 3:48 AM CDT 10:09 PM CDT
Moon 10:51 AM CDT (7/13) 11:03 PM CDT (7/13)
Length of Visible Light 15h 38m
Length of Day
14h 36m
Waxing Crescent, 26% of the Moon is Illuminated
Jul 13
Waxing Crescent
Jul 15
First Quarter
Jul 22
Full
Jul 29
Last Quarter
Aug 6
New

Hourly Weather History & Observations

Time (CDT) Temp. Heat Index Dew Point Humidity Pressure Visibility Wind Dir Wind Speed Gust Speed Precip Events Conditions
12:15 AM 66.2 °F - 62.6 °F 88% 30.06 in 10.0 mi Calm Calm - N/A   Clear
12:35 AM 66.2 °F - 62.6 °F 88% 30.07 in 10.0 mi Calm Calm - N/A   Clear
12:55 AM 66.2 °F - 62.6 °F 88% 30.07 in 10.0 mi Calm Calm - N/A   Clear
1:15 AM 66.2 °F - 62.6 °F 88% 30.07 in 10.0 mi NNE 3.5 mph - N/A   Clear
1:35 AM 66.2 °F - 62.6 °F 88% 30.07 in 10.0 mi NNE 3.5 mph - N/A   Clear
1:55 AM 64.4 °F - 60.8 °F 88% 30.06 in 10.0 mi NNE 3.5 mph - N/A   Clear
2:15 AM 66.2 °F - 60.8 °F 83% 30.06 in 10.0 mi Calm Calm - N/A   Clear
2:35 AM 64.4 °F - 60.8 °F 88% 30.06 in 10.0 mi North 3.5 mph - N/A   Clear
2:55 AM 64.4 °F - 60.8 °F 88% 30.06 in 10.0 mi North 3.5 mph - N/A   Clear
3:15 AM 64.4 °F - 60.8 °F 88% 30.07 in 10.0 mi North 3.5 mph - N/A   Clear
3:35 AM 64.4 °F - 60.8 °F 88% 30.07 in 10.0 mi Calm Calm - N/A   Clear
3:55 AM 62.6 °F - 60.8 °F 94% 30.07 in 10.0 mi Calm Calm - N/A   Clear
4:15 AM 62.6 °F - 60.8 °F 94% 30.07 in 10.0 mi Calm Calm - N/A   Clear
4:35 AM 62.6 °F - 59.0 °F 88% 30.07 in 10.0 mi Calm Calm - N/A   Clear
4:55 AM 62.6 °F - 59.0 °F 88% 30.07 in 10.0 mi North 3.5 mph - N/A   Clear
5:15 AM 62.6 °F - 59.0 °F 88% 30.07 in 10.0 mi Calm Calm - N/A   Clear
5:35 AM 62.6 °F - 59.0 °F 88% 30.07 in 10.0 mi Calm Calm - N/A   Clear
5:55 AM 62.6 °F - 59.0 °F 88% 30.08 in 10.0 mi Calm Calm - N/A   Clear
6:15 AM 62.6 °F - 60.8 °F 94% 30.08 in 10.0 mi North 3.5 mph - N/A   Clear
6:35 AM 64.4 °F - 60.8 °F 88% 30.08 in 10.0 mi NNE 3.5 mph - N/A   Clear
6:55 AM 64.4 °F - 60.8 °F 88% 30.08 in 10.0 mi NNE 3.5 mph - N/A   Clear
7:15 AM 64.4 °F - 60.8 °F 88% 30.08 in 10.0 mi NE 4.6 mph - N/A   Clear
7:35 AM 66.2 °F - 62.6 °F 88% 30.08 in 10.0 mi NE 4.6 mph - N/A   Clear
7:55 AM 68.0 °F - 62.6 °F 83% 30.08 in 10.0 mi NNE 3.5 mph - N/A   Clear
8:15 AM 69.8 °F - 64.4 °F 83% 30.09 in 10.0 mi NNE 5.8 mph - N/A   Clear
8:35 AM 71.6 °F - 64.4 °F 78% 30.09 in 10.0 mi NNE 5.8 mph - N/A   Clear
8:55 AM 71.6 °F - 64.4 °F 78% 30.09 in 10.0 mi NNE 5.8 mph - N/A   Clear
9:15 AM 73.4 °F - 66.2 °F 78% 30.09 in 10.0 mi NNE 8.1 mph - N/A   Clear
9:35 AM 73.4 °F - 66.2 °F 78% 30.09 in 10.0 mi NNE 5.8 mph - N/A   Clear
9:55 AM 75.2 °F - 66.2 °F 73% 30.09 in 10.0 mi NE 5.8 mph - N/A   Clear
10:15 AM 75.2 °F - 66.2 °F 73% 30.09 in 10.0 mi NNE 6.9 mph - N/A   Clear
10:35 AM 77.0 °F - 66.2 °F 69% 30.09 in 10.0 mi NNE 8.1 mph - N/A   Clear
10:55 AM 77.0 °F - 66.2 °F 69% 30.09 in 10.0 mi ENE 9.2 mph - N/A   Clear
11:15 AM 78.8 °F - 66.2 °F 65% 30.09 in 10.0 mi NE 9.2 mph - N/A   Clear
11:35 AM 78.8 °F - 66.2 °F 65% 30.09 in 10.0 mi NE 8.1 mph - N/A   Clear
11:55 AM 80.6 °F 82.3 °F 64.4 °F 58% 30.09 in 10.0 mi ENE 12.7 mph - N/A   Clear
12:15 PM 80.6 °F 81.8 °F 62.6 °F 54% 30.08 in 10.0 mi ENE 8.1 mph - N/A   Clear
12:35 PM 80.6 °F 81.8 °F 62.6 °F 54% 30.07 in 10.0 mi East 10.4 mph - N/A   Clear
12:55 PM 82.4 °F 82.9 °F 60.8 °F 48% 30.07 in 10.0 mi NE 10.4 mph 16.1 mph N/A   Clear
1:15 PM 82.4 °F 83.4 °F 62.6 °F 51% 30.07 in 10.0 mi NE 13.8 mph - N/A   Clear
1:35 PM 84.2 °F 84.4 °F 60.8 °F 45% 30.07 in 10.0 mi ESE 9.2 mph - N/A   Clear
1:55 PM 84.2 °F 84.4 °F 60.8 °F 45% 30.06 in 10.0 mi East 12.7 mph - N/A   Clear
2:15 PM 84.2 °F 84.4 °F 60.8 °F 45% 30.06 in 10.0 mi East 10.4 mph - N/A   Clear
2:35 PM 84.2 °F 84.4 °F 60.8 °F 45% 30.05 in 10.0 mi NE 8.1 mph - N/A   Clear
2:55 PM 82.4 °F 82.9 °F 60.8 °F 48% 30.04 in 10.0 mi NNE 10.4 mph - N/A   Scattered Clouds
3:15 PM 84.2 °F 84.4 °F 60.8 °F 45% 30.04 in 10.0 mi NE 10.4 mph 16.1 mph N/A   Scattered Clouds
3:35 PM 84.2 °F 83.8 °F 59.0 °F 42% 30.04 in 10.0 mi ENE 11.5 mph - N/A   Scattered Clouds
3:55 PM 84.2 °F 84.4 °F 60.8 °F 45% 30.03 in 10.0 mi NE 8.1 mph - N/A   Scattered Clouds
4:15 PM 82.4 °F 82.9 °F 60.8 °F 48% 30.03 in 10.0 mi ENE 8.1 mph - N/A   Scattered Clouds
4:35 PM 84.2 °F 84.4 °F 60.8 °F 45% 30.03 in 10.0 mi ENE 10.4 mph - N/A   Scattered Clouds
4:55 PM 84.2 °F 83.8 °F 59.0 °F 42% 30.03 in 10.0 mi NE 8.1 mph - N/A   Clear
5:15 PM 84.2 °F 84.4 °F 60.8 °F 45% 30.03 in 10.0 mi East 9.2 mph - N/A   Clear
5:35 PM 84.2 °F 84.4 °F 60.8 °F 45% 30.03 in 10.0 mi ENE 5.8 mph - N/A   Clear
5:55 PM 84.2 °F 84.4 °F 60.8 °F 45% 30.02 in 10.0 mi NE 8.1 mph - N/A   Clear
6:15 PM 84.2 °F 84.4 °F 60.8 °F 45% 30.02 in 10.0 mi ENE 9.2 mph - N/A   Scattered Clouds
6:35 PM 82.4 °F 82.9 °F 60.8 °F 48% 30.03 in 10.0 mi ENE 6.9 mph - N/A   Scattered Clouds
6:55 PM 82.4 °F 83.4 °F 62.6 °F 51% 30.03 in 10.0 mi ENE 8.1 mph - N/A   Scattered Clouds
7:15 PM 78.8 °F - 66.2 °F 65% 30.04 in 10.0 mi ESE 5.8 mph 16.1 mph N/A Rain , Thunderstorm Light Thunderstorms and Rain
7:35 PM 77.0 °F - 66.2 °F 69% 30.04 in 10.0 mi East 10.4 mph - N/A Thunderstorm Clear
7:55 PM 77.0 °F - 64.4 °F 65% 30.05 in 10.0 mi ENE 4.6 mph - N/A   Scattered Clouds
8:15 PM 75.2 °F - 64.4 °F 69% 30.05 in 10.0 mi Calm Calm - N/A   Scattered Clouds
8:35 PM 73.4 °F - 66.2 °F 78% 30.05 in 10.0 mi Calm Calm - N/A   Clear
8:55 PM 73.4 °F - 66.2 °F 78% 30.05 in 10.0 mi NNE 4.6 mph - N/A   Clear
9:15 PM 71.6 °F - 64.4 °F 78% 30.06 in 10.0 mi NE 5.8 mph - N/A   Clear
9:35 PM 71.6 °F - 64.4 °F 78% 30.06 in 10.0 mi NNE 4.6 mph - N/A   Clear
9:55 PM 71.6 °F - 64.4 °F 78% 30.07 in 10.0 mi NNE 4.6 mph - N/A   Clear
10:15 PM 69.8 °F - 64.4 °F 83% 30.07 in 10.0 mi North 3.5 mph - N/A   Clear
10:35 PM 69.8 °F - 64.4 °F 83% 30.07 in 10.0 mi NNE 3.5 mph - N/A   Clear
10:55 PM 69.8 °F - 64.4 °F 83% 30.08 in 10.0 mi NE 5.8 mph - N/A   Clear
11:15 PM 69.8 °F - 64.4 °F 83% 30.08 in 10.0 mi NE 4.6 mph - N/A   Clear
11:35 PM 69.8 °F - 64.4 °F 83% 30.08 in 10.0 mi NE 4.6 mph - N/A   Clear
11:55 PM 69.8 °F - 64.4 °F 83% 30.07 in 10.0 mi East 4.6 mph - N/A   Clear